Notices

What's New in latest Release from April 7th, 2021:

- Updated Glossary, including Speed of Maximum Gust, and Total Hourly Precipitation

- Updated national and regional climate services offices contacts and prices information

- Addition of station inventory lists for 1981-2010, 1971-2000, and 1961-1990 Normals.

If you haven't already, please take our survey and provide feedback about our website: https://eccc.sondage-survey.ca/f/LanguageSelection.aspx?s=442ca660-fcf1-47c0-95a9-59707d6fd709

Hourly Data Report for September 11, 2017

TORONTO CITY
ONTARIO

43°40'00.000" N
79°24'00.000" W
112.50 m
6158355
71508
XTO

Download Data

Hourly Data (September 2017)
Hourly Data Report for September 11, 2017
TIME
LST
Temp Definition
°C
Dew Point Definition
°C
Rel Hum Definition
%
Precip. Amount Definition
mm

Wind Dir Definition
10's deg

Wind Spd Definition
km/h
Visibility Definition
km
Stn Press Definition
kPa
Hmdx Definition


Wind Chill Definition


Weather Definition


00:00 12.0 7.0 71 0.0 LegendMM LegendMM   101.67     LegendNANA
01:00 12.0 6.9 71 0.0 LegendMM LegendMM   101.59     LegendNANA
02:00 13.4 6.9 65 0.0 LegendMM LegendMM   101.49     LegendNANA
03:00 11.4 6.6 72 0.0 LegendMM LegendMM   101.46     LegendNANA
04:00 11.1 6.5 74 0.0 LegendMM LegendMM   101.37     LegendNANA
05:00 10.9 6.7 76 0.0 LegendMM LegendMM   101.39     LegendNANA
06:00 10.6 7.1 79 0.0 LegendMM LegendMM   101.49     LegendNANA
07:00 11.8 7.7 76 0.0 LegendMM LegendMM   101.54     LegendNANA
08:00 15.6 6.9 56 0.0 LegendMM LegendMM   101.54     LegendNANA
09:00 16.7 8.3 57 0.0 LegendMM LegendMM   101.51     LegendNANA
10:00 18.3 7.0 48 0.0 LegendMM LegendMM   101.45     LegendNANA
11:00 19.1 5.7 41 0.0 LegendMM LegendMM   101.40     LegendNANA
12:00 20.3 4.1 34 0.0 LegendMM LegendMM   101.34     LegendNANA
13:00 20.4 4.2 34 0.0 LegendMM LegendMM   101.28     LegendNANA
14:00 21.6 2.9 29 0.0 LegendMM LegendMM   101.17     LegendNANA
15:00 21.7 2.2 28 0.0 LegendMM LegendMM   101.10     LegendNANA
16:00 21.2 3.9 32 0.0 LegendMM LegendMM   100.98     LegendNANA
17:00 20.4 6.4 40 0.0 LegendMM LegendMM   100.92     LegendNANA
18:00 19.1 6.9 45 0.0 LegendMM LegendMM   100.89     LegendNANA
19:00 17.1 7.8 54 0.0 LegendMM LegendMM   100.83     LegendNANA
20:00 16.6 8.6 59 0.0 LegendMM LegendMM   100.86     LegendNANA
21:00 16.0 11.8 77 0.0 LegendMM LegendMM   100.80     LegendNANA
22:00 15.9 12.1 78 0.0 LegendMM LegendMM   100.77     LegendNANA
23:00 14.7 11.5 81 0.0 LegendMM LegendMM   100.74     LegendNANA

Notes on Data Quality.

Legend

  • E = Estimated
  • M = Missing
  • NA = Not Available*
  • [empty] = Indicates an unobserved value
Date modified: